Previsão horária em Celbowko

Hoje, 29 Julho, Quinta-feira

Tempo Temperatura Precipitação Vento Pressão Humidade
00:00 +19°C° 0 mm 2 m/s 755 mmHg 86%
01:00 +18°C° 0 mm 3 m/s 755 mmHg 87%
02:00 +18°C° 0 mm 3 m/s 754 mmHg 88%
03:00 +17°C° 0 mm 4 m/s 754 mmHg 89%
04:00 +17°C° 0 mm 4 m/s 754 mmHg 91%
05:00 +19°C° 0 mm 5 m/s 754 mmHg 84%
06:00 +20°C° 0 mm 5 m/s 754 mmHg 77%
07:00 +21°C° 0 mm 6 m/s 754 mmHg 69%
08:00 +23°C° 0 mm 6 m/s 754 mmHg 61%
09:00 +24°C° 0 mm 6 m/s 754 mmHg 53%
10:00 +26°C° 0 mm 6 m/s 754 mmHg 45%
11:00 +24°C° 0 mm 6 m/s 754 mmHg 47%
12:00 +24°C° 0 mm 6 m/s 754 mmHg 50%
13:00 +23°C° 0 mm 5 m/s 754 mmHg 52%
14:00 +23°C° 0.1 mm 6 m/s 754 mmHg 54%
15:00 +22°C° 0.1 mm 6 m/s 754 mmHg 57%
16:00 +22°C° 0.1 mm 7 m/s 754 mmHg 59%
17:00 +21°C° 0.1 mm 6 m/s 754 mmHg 60%
18:00 +20°C° 0.1 mm 6 m/s 754 mmHg 61%
19:00 +20°C° 0.1 mm 5 m/s 754 mmHg 61%
20:00 +19°C° 0 mm 5 m/s 754 mmHg 62%
21:00 +17°C° 0 mm 6 m/s 754 mmHg 63%
22:00 +16°C° 0 mm 6 m/s 754 mmHg 64%
23:00 +16°C° 0 mm 7 m/s 754 mmHg 64%

Amanhã, 30 Julho, Sexta-feira

Tempo Temperatura Precipitação Vento Pressão Humidade
00:00 +16°C° 0 mm 7 m/s 754 mmHg 63%
01:00 +16°C° 0 mm 8 m/s 754 mmHg 63%
02:00 +15°C° 0 mm 8 m/s 753 mmHg 66%
03:00 +15°C° 0 mm 8 m/s 753 mmHg 68%
04:00 +15°C° 0 mm 8 m/s 753 mmHg 71%
05:00 +16°C° 0 mm 8 m/s 753 mmHg 68%
06:00 +16°C° 0 mm 9 m/s 753 mmHg 64%
07:00 +17°C° 0 mm 9 m/s 753 mmHg 61%
08:00 +19°C° 0 mm 10 m/s 753 mmHg 55%
09:00 +21°C° 0 mm 10 m/s 752 mmHg 49%
10:00 +22°C° 0 mm 10 m/s 752 mmHg 44%
11:00 +23°C° 0 mm 10 m/s 752 mmHg 42%
12:00 +24°C° 0 mm 10 m/s 752 mmHg 40%
13:00 +26°C° 0 mm 10 m/s 752 mmHg 39%
14:00 +26°C° 0 mm 10 m/s 751 mmHg 39%
15:00 +26°C° 0 mm 10 m/s 751 mmHg 40%
16:00 +26°C° 0 mm 10 m/s 751 mmHg 41%
17:00 +23°C° 0 mm 10 m/s 751 mmHg 46%
18:00 +22°C° 0 mm 9 m/s 751 mmHg 52%
19:00 +21°C° 0 mm 9 m/s 752 mmHg 58%
20:00 +20°C° 0 mm 8 m/s 752 mmHg 62%
21:00 +18°C° 0 mm 8 m/s 752 mmHg 67%
22:00 +17°C° 0 mm 7 m/s 752 mmHg 72%
23:00 +17°C° 0 mm 7 m/s 752 mmHg 75%

Depois de amanhã, 31 Julho, Sábado

Tempo Temperatura Precipitação Vento Pressão Humidade
00:00 +16°C° 0 mm 7 m/s 752 mmHg 79%
01:00 +16°C° 0 mm 6 m/s 752 mmHg 83%
02:00 +15°C° 0 mm 6 m/s 752 mmHg 82%
03:00 +15°C° 0 mm 5 m/s 752 mmHg 82%
04:00 +15°C° 0 mm 5 m/s 752 mmHg 82%
05:00 +16°C° 0 mm 5 m/s 752 mmHg 74%
06:00 +19°C° 0 mm 5 m/s 752 mmHg 65%
07:00 +21°C° 0 mm 4 m/s 752 mmHg 57%
08:00 +23°C° 0 mm 5 m/s 751 mmHg 53%
09:00 +26°C° 0 mm 5 m/s 751 mmHg 48%
10:00 +27°C° 0 mm 6 m/s 751 mmHg 43%
11:00 +27°C° 0.1 mm 6 m/s 751 mmHg 47%
12:00 +26°C° 0.1 mm 6 m/s 751 mmHg 51%
13:00 +26°C° 0.1 mm 6 m/s 751 mmHg 54%
14:00 +24°C° 0.1 mm 6 m/s 750 mmHg 54%
15:00 +24°C° 0.1 mm 6 m/s 750 mmHg 54%
16:00 +23°C° 0.1 mm 6 m/s 750 mmHg 55%
17:00 +23°C° 0 mm 6 m/s 750 mmHg 55%
18:00 +22°C° 0 mm 5 m/s 750 mmHg 55%
19:00 +22°C° 0 mm 5 m/s 750 mmHg 55%
20:00 +21°C° 0 mm 6 m/s 750 mmHg 57%
21:00 +20°C° 0 mm 7 m/s 750 mmHg 59%
22:00 +18°C° 0 mm 8 m/s 751 mmHg 61%
23:00 +18°C° 0 mm 8 m/s 751 mmHg 67%

1 Agosto, Domingo

Tempo Temperatura Precipitação Vento Pressão Humidade
00:00 +17°C° 0 mm 9 m/s 751 mmHg 72%
01:00 +17°C° 0 mm 9 m/s 751 mmHg 78%
02:00 +16°C° 0.1 mm 8 m/s 751 mmHg 80%
03:00 +16°C° 0.1 mm 8 m/s 751 mmHg 82%
04:00 +16°C° 0.1 mm 8 m/s 751 mmHg 84%
05:00 +16°C° 0.1 mm 8 m/s 752 mmHg 81%
06:00 +17°C° 0.1 mm 8 m/s 752 mmHg 78%
07:00 +18°C° 0.1 mm 8 m/s 752 mmHg 75%
08:00 +20°C° 0.1 mm 8 m/s 752 mmHg 67%
09:00 +21°C° 0.1 mm 8 m/s 752 mmHg 60%
10:00 +22°C° 0.1 mm 8 m/s 753 mmHg 52%
11:00 +22°C° 0.1 mm 7 m/s 753 mmHg 49%
12:00 +23°C° 0.1 mm 7 m/s 753 mmHg 47%
13:00 +24°C° 0.1 mm 7 m/s 753 mmHg 44%
14:00 +23°C° 0 mm 7 m/s 753 mmHg 46%
15:00 +23°C° 0 mm 8 m/s 753 mmHg 47%
16:00 +22°C° 0 mm 8 m/s 753 mmHg 49%
17:00 +21°C° 0 mm 8 m/s 753 mmHg 54%
18:00 +20°C° 0 mm 7 m/s 753 mmHg 60%
19:00 +18°C° 0 mm 7 m/s 754 mmHg 65%
20:00 +17°C° 0 mm 6 m/s 754 mmHg 70%
21:00 +16°C° 0 mm 5 m/s 754 mmHg 74%
22:00 +14°C° 0 mm 5 m/s 754 mmHg 78%
23:00 +14°C° 0 mm 5 m/s 754 mmHg 81%

2 Agosto, Segunda-feira

Tempo Temperatura Precipitação Vento Pressão Humidade
00:00 +14°C° 0 mm 5 m/s 754 mmHg 83%
01:00 +14°C° 0 mm 5 m/s 754 mmHg 86%
02:00 +14°C° 0 mm 5 m/s 754 mmHg 85%
03:00 +14°C° 0 mm 5 m/s 754 mmHg 84%
04:00 +14°C° 0 mm 5 m/s 754 mmHg 83%
05:00 +15°C° 0 mm 5 m/s 754 mmHg 76%
06:00 +17°C° 0 mm 6 m/s 754 mmHg 68%
07:00 +19°C° 0 mm 6 m/s 754 mmHg 61%
08:00 +20°C° 0 mm 6 m/s 754 mmHg 57%
09:00 +21°C° 0 mm 7 m/s 754 mmHg 54%
10:00 +22°C° 0 mm 7 m/s 754 mmHg 50%
11:00 +22°C° 0 mm 7 m/s 754 mmHg 50%
12:00 +22°C° 0 mm 7 m/s 755 mmHg 50%
13:00 +22°C° 0 mm 8 m/s 755 mmHg 50%
14:00 +21°C° 0 mm 7 m/s 755 mmHg 51%
15:00 +21°C° 0 mm 7 m/s 755 mmHg 52%
16:00 +20°C° 0 mm 6 m/s 755 mmHg 53%
17:00 +20°C° 0 mm 6 m/s 755 mmHg 56%
18:00 +19°C° 0 mm 5 m/s 755 mmHg 60%
19:00 +17°C° 0 mm 5 m/s 755 mmHg 63%
20:00 +16°C° 0.1 mm 5 m/s 756 mmHg 70%
21:00 +15°C° 0.1 mm 4 m/s 756 mmHg 77%
22:00 +14°C° 0.1 mm 4 m/s 756 mmHg 83%
23:00 +13°C° 0.2 mm 4 m/s 756 mmHg 86%

3 Agosto, Terça-feira

Tempo Temperatura Precipitação Vento Pressão Humidade
00:00 +13°C° 0.2 mm 4 m/s 756 mmHg 89%
01:00 +13°C° 0.2 mm 4 m/s 756 mmHg 92%
02:00 +13°C° 0.2 mm 5 m/s 756 mmHg 90%
03:00 +13°C° 0.2 mm 5 m/s 756 mmHg 89%
04:00 +13°C° 0.2 mm 5 m/s 756 mmHg 87%
05:00 +14°C° 0.2 mm 6 m/s 756 mmHg 84%
06:00 +15°C° 0.2 mm 6 m/s 756 mmHg 81%
07:00 +16°C° 0.2 mm 7 m/s 756 mmHg 79%
08:00 +18°C° 0.1 mm 7 m/s 756 mmHg 72%
09:00 +20°C° 0.1 mm 7 m/s 756 mmHg 66%
10:00 +21°C° 0.1 mm 7 m/s 757 mmHg 59%
11:00 +21°C° 0.4 mm 7 m/s 757 mmHg 61%
12:00 +21°C° 0.4 mm 7 m/s 757 mmHg 62%
13:00 +21°C° 0.4 mm 7 m/s 757 mmHg 63%
14:00 +21°C° 0.1 mm 6 m/s 757 mmHg 60%
15:00 +21°C° 0.1 mm 6 m/s 757 mmHg 57%
16:00 +22°C° 0.1 mm 6 m/s 757 mmHg 53%
17:00 +21°C° 0 mm 5 m/s 757 mmHg 57%
18:00 +20°C° 0 mm 5 m/s 757 mmHg 61%
19:00 +19°C° 0 mm 4 m/s 757 mmHg 64%
20:00 +17°C° 0 mm 4 m/s 757 mmHg 71%
21:00 +15°C° 0 mm 4 m/s 758 mmHg 77%
22:00 +14°C° 0 mm 3 m/s 758 mmHg 84%
23:00 +13°C° 0 mm 4 m/s 758 mmHg 85%
Mostrar mais

Necessitamos do seu Consentimento

A Meteoprog e os seus Fornecedores de Serviços podem armazenar e aceder a dados pessoais como cookies, identificadores do dispositivo ou outras tecnologias semelhantes existentes no seu dispositivo e processar estes dados para personalizar conteúdos e anúncios, assim como funcionalidades nas redes sociais e análise de tráfego.

  • Armazenar e/ou aceder a informações no seu dispositivo

    Os cookies, identificadores do dispositivo ou outras informações podem ser armazenados ou acedidos no seu dispositivo, para os fins acima indicados.

  • Anúncios e conteúdos personalizados, medição de anúncios e conteúdos, dados sobre o público-alvo e desenvolvimento de produtos

    Os anúncios e os conteúdos podem ser personalizados com base num perfil. Podem ser adicionados dados adicionais para uma maior personalização dos anúncios e dos conteúdos. A eficácia dos anúncios e dos conteúdos pode ser medida. Podem ser obtidas informações sobre o público que visualizou os anúncios e os conteúdos. Estes dados podem ser usados para desenvolver ou melhorar sistemas, softwares ou a experiência do utilizador.

Ao clicar em "Eu concordo”, permitirá o uso de cookies, identificadores do dispositivo e web beacons mencionados ou outras tecnologias semelhantes. As configurações do navegador do seu dispositivo podem ser alteradas.

Para certos fins, podem ser invocados interesses legítimos ao invés de consentimento. Pode ler mais informação sobre este assunto na nossa Política de Privacidade e Cookies.